User: anonymous   Login
Location: Ariel
(45.9570°N, 122.5700°W)
Time: 18:36:10
(UTC-07:00)
Language:

MOZHAYETS 4 - Orbit

View from above orbital plane
View from above orbital plane
View from above satellite
View from above satellite

Ground track
Ground track

The orbit data is extracted from the following two-line orbital elements,

1 27939U 03042A   20297.83087351  .00000129  00000-0  31789-4 0  9998
2 27939  98.1103  71.0852 0011899 311.6295  48.3894 14.66897210912835
Epoch (UTC): 23 October 2020 19:56:27
Eccentricity: 0.0011899
inclination: 98.1103°
perigee height: 662 km
apogee height: 679 km
right ascension of ascending node: 71.0852°
argument of perigee: 311.6295°
revolutions per day: 14.66897210
mean anomaly at epoch: 48.3894°
orbit number at epoch: 91283

The dashed part of the orbit path shows where the satellite is in the earth's shadow,  

DLR